| time (UTC) | temp C | wind direction | speed KPH | gust KPH | rain 1hr cm | rain 24hr cm | rain mn cm | humidity % | barometer mb |
| 20260504000123 | 16 | 20 | 0.0 | 17.7 | 0.00 | 0.00 | 0.00 | 56 | 1010.0 |
| 20260503235323 | 16 | 309 | 0.0 | 17.7 | 0.00 | 0.00 | 0.00 | 56 | 1009.9 |
| 20260503234522 | 16 | 329 | 1.6 | 17.7 | 0.00 | 0.00 | 0.00 | 54 | 1010.2 |
| 20260503233722 | 16 | 340 | 1.6 | 17.7 | 0.00 | 0.00 | 0.00 | 54 | 1010.4 |
| 20260503232921 | 16 | 329 | 1.6 | 17.7 | 0.00 | 0.00 | 0.00 | 55 | 1010.3 |
| 20260503232122 | 17 | 304 | 1.6 | 17.7 | 0.00 | 0.00 | 0.00 | 55 | 1010.2 |
| 20260503231320 | 17 | 338 | 0.0 | 17.7 | 0.00 | 0.00 | 0.00 | 55 | 1010.0 |
| 20260503225448 | 17 | 333 | 1.6 | 17.7 | 0.00 | 0.00 | 0.00 | 52 | 1010.6 |
| 20260503224647 | 17 | 232 | 1.6 | 17.7 | 0.00 | 0.00 | 0.00 | 53 | 1010.6 |
| 20260503223846 | 17 | 325 | 3.2 | 17.7 | 0.00 | 0.00 | 0.00 | 53 | 1010.5 |
| 20260503223045 | 16 | 322 | 3.2 | 17.7 | 0.00 | 0.00 | 0.00 | 54 | 1010.6 |
| 20260503222244 | 16 | 291 | 3.2 | 17.7 | 0.00 | 0.00 | 0.00 | 53 | 1010.5 |
| 20260503221443 | 17 | 329 | 1.6 | 17.7 | 0.00 | 0.00 | 0.00 | 53 | 1010.7 |
| 20260503220643 | 17 | 326 | 1.6 | 17.7 | 0.00 | 0.00 | 0.00 | 54 | 1010.7 |
| 20260503215842 | 17 | 24 | 0.0 | 17.7 | 0.00 | 0.00 | 0.00 | 53 | 1010.6 |
| 20260503215041 | 17 | 233 | 1.6 | 17.7 | 0.00 | 0.00 | 0.00 | 53 | 1010.7 |
| 20260503213726 | 17 | 167 | 0.0 | 17.7 | 0.00 | 0.00 | 0.00 | 53 | 1010.7 |
| 20260503212926 | 16 | 173 | 1.6 | 17.7 | 0.00 | 0.00 | 0.00 | 53 | 1011.1 |
| 20260503212124 | 16 | 220 | 3.2 | 17.7 | 0.00 | 0.00 | 0.00 | 52 | 1011.2 |
| 20260503211324 | 17 | 240 | 3.2 | 17.7 | 0.00 | 0.00 | 0.00 | 51 | 1011.2 |
| 20260503210008 | 17 | 58 | 1.6 | 17.7 | 0.00 | 0.00 | 0.00 | 49 | 1010.9 |
| 20260503205208 | 17 | 228 | 3.2 | 17.7 | 0.00 | 0.00 | 0.00 | 48 | 1010.9 |
| 20260503204407 | 17 | 217 | 3.2 | 17.7 | 0.00 | 0.00 | 0.00 | 49 | 1011.1 |
| 20260503203606 | 17 | 242 | 3.2 | 17.7 | 0.00 | 0.00 | 0.00 | 50 | 1011.5 |
| 20260503202249 | 17 | 264 | 8.0 | 17.7 | 0.00 | 0.00 | 0.00 | 48 | 1011.7 |
| 20260503200932 | 17 | 249 | 3.2 | 17.7 | 0.00 | 0.00 | 0.00 | 49 | 1012.1 |
| 20260503200132 | 17 | 340 | 8.0 | 17.7 | 0.00 | 0.00 | 0.00 | 47 | 1012.5 |
| 20260503195331 | 17 | 278 | 3.2 | 17.7 | 0.00 | 0.00 | 0.00 | 48 | 1012.7 |
| 20260503194531 | 17 | 222 | 3.2 | 17.7 | 0.00 | 0.00 | 0.00 | 50 | 1013.2 |
| 20260503193730 | 17 | 273 | 3.2 | 17.7 | 0.00 | 0.00 | 0.00 | 49 | 1013.1 |
| 20260503192929 | 16 | 247 | 4.8 | 17.7 | 0.00 | 0.00 | 0.00 | 51 | 1013.4 |
| 20260503192129 | 16 | 232 | 4.8 | 17.7 | 0.00 | 0.00 | 0.00 | 52 | 1013.8 |
| 20260503190812 | 16 | 234 | 4.8 | 17.7 | 0.00 | 0.00 | 0.00 | 50 | 1014.6 |
| 20260503185456 | 16 | 244 | 3.2 | 17.7 | 0.00 | 0.00 | 0.00 | 50 | 1014.5 |
| 20260503184655 | 16 | 235 | 4.8 | 17.7 | 0.00 | 0.00 | 0.00 | 50 | 1014.6 |
| 20260503183338 | 16 | 325 | 6.4 | 17.7 | 0.00 | 0.00 | 0.00 | 47 | 1014.8 |
| 20260503182538 | 17 | 348 | 6.4 | 17.7 | 0.00 | 0.00 | 0.00 | 49 | 1015.0 |
| 20260503181737 | 17 | 339 | 4.8 | 17.7 | 0.00 | 0.00 | 0.00 | 50 | 1014.5 |
| 20260503180936 | 16 | 353 | 6.4 | 17.7 | 0.00 | 0.00 | 0.00 | 50 | 1014.7 |
| 20260503180135 | 16 | 353 | 11.3 | 17.7 | 0.00 | 0.00 | 0.00 | 46 | 1015.1 |
| 20260503175334 | 17 | 332 | 3.2 | 17.7 | 0.00 | 0.00 | 0.00 | 48 | 1015.0 |
| 20260503174534 | 17 | 351 | 8.0 | 17.7 | 0.00 | 0.00 | 0.00 | 46 | 1015.3 |
| 20260503173733 | 16 | 318 | 8.0 | 17.7 | 0.00 | 0.00 | 0.00 | 49 | 1015.2 |
| 20260503172932 | 17 | 318 | 6.4 | 17.7 | 0.00 | 0.00 | 0.00 | 50 | 1015.4 |
| 20260503172131 | 17 | 322 | 8.0 | 17.7 | 0.00 | 0.00 | 0.00 | 49 | 1015.7 |
| 20260503171330 | 17 | 326 | 8.0 | 17.7 | 0.00 | 0.00 | 0.00 | 50 | 1015.7 |
| 20260503170529 | 17 | 264 | 4.8 | 17.7 | 0.00 | 0.00 | 0.00 | 49 | 1016.1 |
| 20260503150533 | 14 | 325 | 8.0 | 17.7 | 0.00 | 0.00 | 0.00 | 57 | 1017.7 |
| 20260503131054 | 11 | 264 | 4.8 | 17.7 | 0.00 | 0.00 | 0.00 | 68 | 1018.5 |
| 20260503110541 | 6 | 334 | 6.4 | 17.7 | 0.00 | 0.00 | 0.00 | 66 | 1018.2 |
| 20260503090259 | 5 | 332 | 3.2 | 17.7 | 0.00 | 0.00 | 0.00 | 71 | 1018.6 |
| 20260503081226 | 5 | 324 | 0.0 | 17.7 | 0.00 | 0.00 | 0.00 | 75 | 1018.7 |
| 20260503080426 | 5 | 333 | 0.0 | 17.7 | 0.00 | 0.00 | 0.00 | 75 | 1018.3 |
| 20260503072423 | 5 | 0 | 0.0 | 17.7 | 0.00 | 0.00 | 0.00 | 77 | 1018.5 |
| 20260503071623 | 4 | 39 | 0.0 | 17.7 | 0.00 | 0.00 | 0.00 | 77 | 1018.7 |
| 20260503070306 | 4 | 138 | 0.0 | 17.7 | 0.00 | 0.00 | 0.00 | 79 | 1018.6 |
| 20260503055102 | 4 | 142 | 0.0 | 17.7 | 0.00 | 0.00 | 0.00 | 80 | 1018.9 |
| 20260503054302 | 4 | 138 | 0.0 | 17.7 | 0.00 | 0.00 | 0.00 | 80 | 1019.0 |
| 20260503053502 | 4 | 140 | 0.0 | 17.7 | 0.00 | 0.00 | 0.00 | 81 | 1018.7 |
| 20260503052701 | 4 | 138 | 0.0 | 17.7 | 0.00 | 0.00 | 0.00 | 81 | 1018.6 |
| 20260503051344 | 4 | 138 | 0.0 | 17.7 | 0.00 | 0.00 | 0.00 | 81 | 1018.7 |
| 20260503050544 | 4 | 138 | 0.0 | 17.7 | 0.00 | 0.00 | 0.00 | 80 | 1018.5 |
| 20260503045743 | 4 | 147 | 0.0 | 17.7 | 0.00 | 0.00 | 0.00 | 80 | 1019.0 |
| 20260503044426 | 4 | 132 | 0.0 | 17.7 | 0.00 | 0.00 | 0.00 | 80 | 1018.7 |
| 20260503043625 | 4 | 134 | 0.0 | 17.7 | 0.00 | 0.00 | 0.00 | 80 | 1018.8 |
| 20260503042310 | 4 | 146 | 0.0 | 17.7 | 0.00 | 0.00 | 0.00 | 80 | 1018.7 |
| 20260503041509 | 4 | 145 | 0.0 | 17.7 | 0.00 | 0.00 | 0.00 | 80 | 1018.8 |
| 20260503040709 | 5 | 148 | 0.0 | 17.7 | 0.00 | 0.00 | 0.00 | 79 | 1018.9 |
| 20260503035909 | 5 | 146 | 0.0 | 17.7 | 0.00 | 0.00 | 0.00 | 79 | 1018.7 |
| 20260503035109 | 5 | 144 | 0.0 | 17.7 | 0.00 | 0.00 | 0.00 | 79 | 1018.9 |
| 20260503034308 | 5 | 134 | 0.0 | 17.7 | 0.00 | 0.00 | 0.00 | 79 | 1018.9 |
| 20260503033507 | 5 | 140 | 0.0 | 17.7 | 0.00 | 0.00 | 0.00 | 80 | 1018.9 |
| 20260503032707 | 5 | 138 | 0.0 | 17.7 | 0.00 | 0.00 | 0.00 | 79 | 1019.0 |
| 20260503031907 | 5 | 137 | 0.0 | 17.7 | 0.00 | 0.00 | 0.00 | 77 | 1018.8 |
| 20260503031107 | 5 | 131 | 0.0 | 17.7 | 0.00 | 0.00 | 0.00 | 77 | 1018.8 |
| 20260503030306 | 5 | 143 | 0.0 | 17.7 | 0.00 | 0.00 | 0.00 | 73 | 1019.0 |
| 20260503025505 | 5 | 132 | 0.0 | 17.7 | 0.00 | 0.00 | 0.00 | 72 | 1018.8 |
| 20260503024705 | 6 | 142 | 0.0 | 17.7 | 0.00 | 0.00 | 0.00 | 73 | 1018.9 |
| 20260503023348 | 6 | 133 | 0.0 | 17.7 | 0.00 | 0.00 | 0.00 | 72 | 1018.6 |
| 20260503022033 | 6 | 148 | 0.0 | 17.7 | 0.00 | 0.00 | 0.00 | 74 | 1018.6 |
| 20260503021233 | 6 | 150 | 0.0 | 17.7 | 0.00 | 0.00 | 0.00 | 72 | 1018.6 |
| 20260503020432 | 7 | 148 | 0.0 | 17.7 | 0.00 | 0.00 | 0.00 | 72 | 1018.7 |
| 20260503015631 | 7 | 149 | 0.0 | 17.7 | 0.00 | 0.00 | 0.00 | 71 | 1018.8 |
| 20260503014829 | 7 | 153 | 0.0 | 17.7 | 0.00 | 0.00 | 0.00 | 72 | 1018.5 |
| 20260503014030 | 7 | 160 | 0.0 | 17.7 | 0.00 | 0.00 | 0.00 | 70 | 1019.0 |
| 20260503012713 | 7 | 168 | 0.0 | 17.7 | 0.00 | 0.00 | 0.00 | 65 | 1018.5 |
| 20260503011913 | 8 | 175 | 0.0 | 17.7 | 0.00 | 0.00 | 0.00 | 63 | 1018.5 |
| 20260503011113 | 8 | 166 | 0.0 | 17.7 | 0.00 | 0.00 | 0.00 | 61 | 1018.3 |
| 20260503005757 | 8 | 171 | 0.0 | 17.7 | 0.00 | 0.00 | 0.00 | 59 | 1018.0 |
| 20260503004440 | 9 | 174 | 0.0 | 17.7 | 0.00 | 0.00 | 0.00 | 56 | 1018.4 |
| 20260503003638 | 10 | 173 | 0.0 | 17.7 | 0.00 | 0.00 | 0.00 | 58 | 1018.2 |
| 20260503002837 | 10 | 179 | 0.0 | 17.7 | 0.00 | 0.00 | 0.00 | 56 | 1018.1 |
| 20260503002036 | 10 | 158 | 0.0 | 17.7 | 0.00 | 0.00 | 0.00 | 53 | 1018.3 |
| 20260503001236 | 11 | 122 | 0.0 | 17.7 | 0.00 | 0.00 | 0.00 | 53 | 1018.2 |
| 20260503000437 | 11 | 128 | 0.0 | 17.7 | 0.00 | 0.00 | 0.00 | 52 | 1018.1 |